When you browse on this site, cookies collect data to enhance your experience and personalize the content and advertising you see.
Visit our Privacy Policy to learn more. By continuing to use the site, you agree to this use of cookies and data.
  • In Deutschland
  • Länderverzeichnis
  • Für 7 Tage
  • Wassertemperatur
  • Wetterkarte
  • Widgets
  • user-avatar
    Anmelden

    Stündliche Wetter Korçe

    Heute, 27 Mai, Mittwoch

    Zeit Temperatur Niederschläge Wind Luftdruck Luftfeuchtigkeit
    00:00 +6°C° 0.2 mm 1 m/S 667 mmHg 86%
    01:00 +6°C° 0.2 mm 1 m/S 666 mmHg 88%
    02:00 +6°C° 0 mm 1 m/S 666 mmHg 88%
    03:00 +6°C° 0 mm 1 m/S 666 mmHg 87%
    04:00 +6°C° 0 mm 1 m/S 666 mmHg 87%
    05:00 +6°C° 0 mm 2 m/S 667 mmHg 84%
    06:00 +7°C° 0 mm 2 m/S 667 mmHg 80%
    07:00 +8°C° 0 mm 2 m/S 668 mmHg 77%
    08:00 +9°C° 0 mm 2 m/S 668 mmHg 71%
    09:00 +10°C° 0 mm 2 m/S 669 mmHg 66%
    10:00 +12°C° 0 mm 2 m/S 669 mmHg 61%
    11:00 +13°C° 0.3 mm 2 m/S 669 mmHg 60%
    12:00 +13°C° 0.3 mm 2 m/S 669 mmHg 58%
    13:00 +14°C° 0.3 mm 2 m/S 669 mmHg 56%
    14:00 +14°C° 1.1 mm 2 m/S 669 mmHg 59%
    15:00 +13°C° 1.1 mm 2 m/S 669 mmHg 62%
    16:00 +13°C° 1.1 mm 2 m/S 668 mmHg 65%
    17:00 +12°C° 0.6 mm 2 m/S 668 mmHg 71%
    18:00 +10°C° 0.6 mm 1 m/S 668 mmHg 77%
    19:00 +9°C° 0.6 mm 1 m/S 668 mmHg 83%
    20:00 +8°C° 0.1 mm 1 m/S 668 mmHg 83%
    21:00 +8°C° 0.1 mm 1 m/S 668 mmHg 84%
    22:00 +7°C° 0.1 mm 1 m/S 668 mmHg 85%
    23:00 +7°C° 0 mm 1 m/S 668 mmHg 85%

    Morgen, 28 Mai, Donnerstag

    Zeit Temperatur Niederschläge Wind Luftdruck Luftfeuchtigkeit
    00:00 +6°C° 0 mm 1 m/S 668 mmHg 84%
    01:00 +6°C° 0 mm 1 m/S 667 mmHg 83%
    02:00 +6°C° 0 mm 1 m/S 667 mmHg 83%
    03:00 +6°C° 0 mm 1 m/S 667 mmHg 83%
    04:00 +5°C° 0 mm 1 m/S 667 mmHg 83%
    05:00 +7°C° 0 mm 1 m/S 667 mmHg 78%
    06:00 +9°C° 0 mm 1 m/S 668 mmHg 73%
    07:00 +11°C° 0 mm 1 m/S 668 mmHg 68%
    08:00 +12°C° 0 mm 1 m/S 669 mmHg 61%
    09:00 +14°C° 0 mm 1 m/S 669 mmHg 55%
    10:00 +15°C° 0 mm 2 m/S 670 mmHg 48%
    11:00 +15°C° 0.5 mm 2 m/S 669 mmHg 51%
    12:00 +15°C° 0.5 mm 2 m/S 669 mmHg 55%
    13:00 +14°C° 0.5 mm 3 m/S 668 mmHg 58%
    14:00 +14°C° 0.7 mm 3 m/S 668 mmHg 62%
    15:00 +13°C° 0.7 mm 3 m/S 668 mmHg 66%
    16:00 +13°C° 0.7 mm 3 m/S 667 mmHg 69%
    17:00 +11°C° 0.3 mm 3 m/S 667 mmHg 76%
    18:00 +10°C° 0.3 mm 2 m/S 667 mmHg 82%
    19:00 +8°C° 0.3 mm 2 m/S 666 mmHg 88%
    20:00 +8°C° 0 mm 2 m/S 666 mmHg 89%
    21:00 +8°C° 0 mm 1 m/S 666 mmHg 90%
    22:00 +8°C° 0 mm 1 m/S 666 mmHg 90%
    23:00 +8°C° 0 mm 1 m/S 666 mmHg 89%

    übermorgen, 29 Mai, Freitag

    Zeit Temperatur Niederschläge Wind Luftdruck Luftfeuchtigkeit
    00:00 +7°C° 0 mm 1 m/S 666 mmHg 88%
    01:00 +6°C° 0 mm 0 m/S 666 mmHg 86%
    02:00 +6°C° 0 mm 0 m/S 665 mmHg 85%
    03:00 +6°C° 0 mm 0 m/S 665 mmHg 84%
    04:00 +6°C° 0 mm 0 m/S 665 mmHg 83%
    05:00 +7°C° 0 mm 0 m/S 666 mmHg 78%
    06:00 +9°C° 0 mm 0 m/S 666 mmHg 73%
    07:00 +12°C° 0 mm 1 m/S 667 mmHg 68%
    08:00 +13°C° 0.2 mm 1 m/S 667 mmHg 63%
    09:00 +14°C° 0.2 mm 1 m/S 667 mmHg 59%
    10:00 +15°C° 0.2 mm 2 m/S 668 mmHg 55%
    11:00 +15°C° 0.8 mm 2 m/S 667 mmHg 58%
    12:00 +15°C° 0.8 mm 2 m/S 667 mmHg 61%
    13:00 +15°C° 0.8 mm 2 m/S 667 mmHg 64%
    14:00 +15°C° 1 mm 2 m/S 666 mmHg 68%
    15:00 +14°C° 1 mm 2 m/S 666 mmHg 71%
    16:00 +14°C° 1 mm 2 m/S 666 mmHg 75%
    17:00 +12°C° 0.6 mm 2 m/S 666 mmHg 80%
    18:00 +10°C° 0.6 mm 2 m/S 666 mmHg 85%
    19:00 +9°C° 0.6 mm 1 m/S 665 mmHg 91%
    20:00 +8°C° 0.3 mm 2 m/S 666 mmHg 92%
    21:00 +8°C° 0.3 mm 2 m/S 666 mmHg 93%
    22:00 +7°C° 0.3 mm 2 m/S 666 mmHg 95%
    23:00 +8°C° 0.2 mm 1 m/S 666 mmHg 94%

    30 Mai, Samstag

    Zeit Temperatur Niederschläge Wind Luftdruck Luftfeuchtigkeit
    00:00 +8°C° 0.2 mm 1 m/S 665 mmHg 94%
    01:00 +7°C° 0.2 mm 0 m/S 665 mmHg 94%
    02:00 +6°C° 0 mm 0 m/S 665 mmHg 94%
    03:00 +6°C° 0 mm 0 m/S 665 mmHg 93%
    04:00 +5°C° 0 mm 0 m/S 665 mmHg 93%
    05:00 +8°C° 0 mm 1 m/S 665 mmHg 89%
    06:00 +9°C° 0 mm 1 m/S 666 mmHg 84%
    07:00 +10°C° 0 mm 1 m/S 666 mmHg 80%
    08:00 +11°C° 0.2 mm 1 m/S 667 mmHg 73%
    09:00 +12°C° 0.2 mm 2 m/S 667 mmHg 67%
    10:00 +14°C° 0.2 mm 2 m/S 667 mmHg 60%
    11:00 +14°C° 0.3 mm 2 m/S 667 mmHg 60%
    12:00 +14°C° 0.3 mm 2 m/S 667 mmHg 60%
    13:00 +14°C° 0.3 mm 3 m/S 667 mmHg 60%
    14:00 +14°C° 0.4 mm 2 m/S 667 mmHg 64%
    15:00 +14°C° 0.4 mm 2 m/S 667 mmHg 68%
    16:00 +13°C° 0.4 mm 2 m/S 666 mmHg 72%
    17:00 +12°C° 0.2 mm 2 m/S 666 mmHg 78%
    18:00 +11°C° 0.2 mm 1 m/S 666 mmHg 84%
    19:00 +9°C° 0.2 mm 1 m/S 665 mmHg 89%
    20:00 +9°C° 0 mm 1 m/S 665 mmHg 91%
    21:00 +7°C° 0 mm 0 m/S 666 mmHg 92%
    22:00 +7°C° 0 mm 0 m/S 666 mmHg 93%
    23:00 +6°C° 0 mm 0 m/S 665 mmHg 92%

    31 Mai, Sonntag

    Zeit Temperatur Niederschläge Wind Luftdruck Luftfeuchtigkeit
    00:00 +6°C° 0 mm 0 m/S 665 mmHg 92%
    01:00 +6°C° 0 mm 0 m/S 665 mmHg 92%
    02:00 +6°C° 0 mm 0 m/S 665 mmHg 91%
    03:00 +6°C° 0 mm 0 m/S 665 mmHg 90%
    04:00 +5°C° 0 mm 0 m/S 664 mmHg 89%
    05:00 +7°C° 0 mm 0 m/S 665 mmHg 84%
    06:00 +9°C° 0 mm 0 m/S 666 mmHg 79%
    07:00 +10°C° 0 mm 0 m/S 666 mmHg 74%
    08:00 +13°C° 0.1 mm 1 m/S 667 mmHg 67%
    09:00 +14°C° 0.1 mm 1 m/S 667 mmHg 61%
    10:00 +16°C° 0.1 mm 2 m/S 667 mmHg 54%
    11:00 +16°C° 0.2 mm 2 m/S 667 mmHg 54%
    12:00 +16°C° 0.2 mm 2 m/S 667 mmHg 54%
    13:00 +16°C° 0.2 mm 3 m/S 667 mmHg 55%
    14:00 +16°C° 0.3 mm 3 m/S 666 mmHg 57%
    15:00 +16°C° 0.3 mm 3 m/S 666 mmHg 60%
    16:00 +14°C° 0.3 mm 3 m/S 666 mmHg 63%
    17:00 +13°C° 0.1 mm 2 m/S 665 mmHg 70%
    18:00 +12°C° 0.1 mm 2 m/S 665 mmHg 77%
    19:00 +10°C° 0.1 mm 1 m/S 665 mmHg 84%
    20:00 +9°C° 0 mm 1 m/S 665 mmHg 86%
    21:00 +8°C° 0 mm 1 m/S 665 mmHg 87%
    22:00 +8°C° 0 mm 1 m/S 665 mmHg 89%
    23:00 +7°C° 0 mm 1 m/S 664 mmHg 88%

    1 Juni, Montag

    Zeit Temperatur Niederschläge Wind Luftdruck Luftfeuchtigkeit
    00:00 +7°C° 0 mm 1 m/S 664 mmHg 86%
    01:00 +7°C° 0 mm 1 m/S 664 mmHg 85%
    02:00 +6°C° 0 mm 1 m/S 664 mmHg 83%
    03:00 +6°C° 0 mm 1 m/S 664 mmHg 80%
    04:00 +6°C° 0 mm 1 m/S 663 mmHg 78%
    05:00 +8°C° 0 mm 1 m/S 664 mmHg 71%
    06:00 +10°C° 0 mm 1 m/S 665 mmHg 64%
    07:00 +12°C° 0 mm 1 m/S 665 mmHg 57%
    08:00 +13°C° 0 mm 1 m/S 665 mmHg 54%
    09:00 +15°C° 0 mm 2 m/S 666 mmHg 50%
    10:00 +16°C° 0 mm 2 m/S 666 mmHg 47%
    11:00 +17°C° 0 mm 3 m/S 666 mmHg 47%
    12:00 +17°C° 0 mm 3 m/S 666 mmHg 47%
    13:00 +18°C° 0 mm 3 m/S 666 mmHg 47%
    14:00 +17°C° 0 mm 3 m/S 665 mmHg 50%
    15:00 +17°C° 0 mm 3 m/S 665 mmHg 53%
    16:00 +16°C° 0 mm 3 m/S 665 mmHg 56%
    17:00 +13°C° 0 mm 3 m/S 664 mmHg 66%
    18:00 +12°C° 0 mm 2 m/S 664 mmHg 75%
    19:00 +9°C° 0 mm 2 m/S 663 mmHg 84%
    20:00 +9°C° 0 mm 1 m/S 663 mmHg 87%
    21:00 +9°C° 0 mm 1 m/S 663 mmHg 89%
    22:00 +8°C° 0 mm 1 m/S 663 mmHg 92%
    23:00 +8°C° 0 mm 1 m/S 663 mmHg 91%
    Mehr zeigen